Location: *
(57.8420°S, 159.8600°W)
Time: 04:20:37
(UTC+00:00)

Cosmos 2297 - Pass Details

Date: 18 May 2021
Orbit: 837 x 857 km, 71.0° (Epoch: 23 June)

Event Time Altitude Azimuth Distance (km) Brightness Sun altitude
Rises 03:52:15 0° 219° (SW) 3,466 7.2 -10.9°
Reaches altitude 10° 03:54:45 10° 215° (SW) 2,528 6.4 -11.2°
Maximum altitude 04:00:33 65° 133° (SE) 959 3.8 -11.9°
Drops below altitude 10° 04:06:19 10° 51° (NE) 2,513 5.8 -12.7°
Sets 04:08:48 0° 47° (NE) 3,444 6.6 -13.0°
